FW3936 Weather Reports


time (UTC)temp
C
wind
direction
speed
KPH
gust
KPH
rain 1hr
cm
rain 24hr
cm
rain mn
cm
humidity
%
barometer
mb
20260507213015 20 115 4.8 11.3 0.00 0.00 0.00 61 1016.0
20260507211527 19 5 0.0 11.3 0.00 0.00 0.00 63 1016.5
20260507210009 19 21 3.2 12.9 0.00 0.00 0.00 63 1016.3
20260507204507 19 64 3.2 12.9 0.00 0.00 0.00 61 1015.9
20260507203006 20 52 3.2 11.3 0.00 0.00 0.00 63 1016.2
20260507201504 20 344 4.8 16.1 0.00 0.00 0.00 66 1015.8
20260507200100 19 65 3.2 9.7 0.00 0.00 0.00 66 1016.0
20260507200002 19 22 3.2 9.7 0.00 0.00 0.00 66 1015.9
20260507194612 20 79 3.2 12.9 0.00 0.00 0.00 66 1016.2
20260507193054 18 324 3.2 14.5 0.00 0.00 0.00 71 1016.6
20260507191556 17 113 1.6 16.1 0.00 0.00 0.00 72 1016.4
20260507190048 17 109 6.4 14.5 0.00 0.00 0.00 74 1016.4
20260507184546 16 78 1.6 11.3 0.00 0.00 0.00 76 1016.6
20260507183052 16 71 3.2 11.3 0.00 0.00 0.00 76 1017.3
20260507181543 16 5 1.6 9.7 0.00 0.00 0.00 74 1017.4
20260507180049 16 70 3.2 11.3 0.00 0.00 0.00 72 1017.8
20260507174541 17 90 4.8 16.1 0.00 0.00 0.00 72 1018.0
20260507173050 16 360 3.2 16.1 0.00 0.00 0.00 73 1017.7
20260507171536 16 5 1.6 12.9 0.00 0.00 0.00 73 1017.5
20260507170045 16 84 1.6 12.9 0.00 0.00 0.00 74 1017.6
20260507164529 15 320 3.2 14.5 0.00 0.00 0.00 76 1017.9
20260507163027 14 15 1.6 14.5 0.00 0.00 0.00 76 1018.1
20260507161527 14 53 4.8 14.5 0.00 0.00 0.00 76 1017.8
20260507160025 14 303 3.2 19.3 0.00 0.00 0.00 76 1017.9
20260507154523 13 333 3.2 17.7 0.00 0.00 0.00 76 1017.7
20260507153021 13 315 4.8 19.3 0.00 0.00 0.00 76 1017.9
20260507151521 13 271 6.4 22.5 0.00 0.00 0.00 76 1017.5
20260507150018 13 36 4.8 19.3 0.00 0.00 0.00 76 1017.7
20260507144516 13 109 4.8 16.1 0.00 0.00 0.00 78 1017.5
20260507143014 13 324 3.2 14.5 0.00 0.00 0.00 75 1017.2
20260507141510 13 67 3.2 17.7 0.00 0.00 0.00 75 1017.9
20260507140009 13 5 6.4 22.5 0.00 0.00 0.00 75 1017.4
20260507134508 13 320 4.8 14.5 0.00 0.00 0.00 76 1017.7
20260507133004 13 327 1.6 11.3 0.00 0.00 0.00 76 1018.0
20260507131600 14 303 3.2 16.1 0.00 0.00 0.00 77 1017.4
20260507130105 14 320 3.2 17.7 0.00 0.00 0.00 77 1017.4
20260507124559 14 286 3.2 16.1 0.00 0.00 0.00 77 1017.3
20260507123051 14 337 4.8 19.3 0.00 0.00 0.00 76 1017.1
20260507121555 14 9 1.6 12.9 0.00 0.00 0.00 76 1017.1
20260507120145 14 298 6.4 14.5 0.00 0.00 0.00 76 1016.4
20260507114544 15 322 3.2 12.9 0.00 0.00 0.00 76 1016.3
20260507113046 15 360 4.8 19.3 0.00 0.00 0.00 76 1016.1
20260507111539 15 329 3.2 17.7 0.00 0.00 0.00 75 1015.8
20260507110045 15 360 3.2 14.5 0.00 0.00 0.00 75 1015.4
20260507104545 15 315 3.2 8.0 0.00 0.00 0.00 75 1015.6
20260507103050 15 360 4.8 14.5 0.00 0.00 0.00 75 1015.9
20260507101538 15 355 1.6 11.3 0.00 0.00 0.00 75 1015.5
20260507100032 15 5 1.6 9.7 0.00 0.00 0.00 75 1015.3
20260507094533 15 360 3.2 11.3 0.00 0.00 0.00 75 1015.4
20260507093030 15 355 3.2 9.7 0.00 0.00 0.00 75 1015.1
20260507091538 15 294 3.2 16.1 0.00 0.00 0.00 75 1015.4
20260507090033 15 336 1.6 9.7 0.00 0.00 0.00 75 1015.3
20260507084540 15 322 0.0 6.4 0.00 0.00 0.00 75 1015.4
20260507083027 15 16 3.2 8.0 0.00 0.00 0.00 75 1015.5
20260507081528 15 335 0.0 11.3 0.00 0.00 0.00 75 1015.6
20260507080026 15 355 0.0 11.3 0.00 0.00 0.00 75 1015.3
20260507074526 15 348 0.0 11.3 0.00 0.00 0.00 75 1015.4
20260507073025 15 355 1.6 6.4 0.00 0.00 0.00 75 1015.5
20260507071526 15 32 1.6 6.4 0.00 0.00 0.00 75 1015.6
20260507070023 15 105 1.6 11.3 0.00 0.00 0.00 75 1015.4
20260507064522 15 5 1.6 8.0 0.00 0.00 0.00 75 1015.4
20260507063020 16 17 1.6 12.9 0.00 0.00 0.00 75 1015.6
20260507061519 16 332 1.6 11.3 0.00 0.00 0.00 75 1015.3
20260507060020 16 96 1.6 9.7 0.00 0.00 0.00 75 1015.3
20260507054514 16 13 3.2 9.7 0.00 0.00 0.00 75 1014.8
20260507053012 16 318 3.2 16.1 0.00 0.00 0.00 75 1014.5
20260507051511 16 355 3.2 11.3 0.00 0.00 0.00 75 1014.5
20260507050021 16 297 1.6 12.9 0.00 0.00 0.00 75 1014.8
20260507044506 16 346 1.6 17.7 0.00 0.00 0.00 75 1015.1
20260507043005 16 46 3.2 24.1 0.00 0.00 0.00 75 1014.5
20260507041507 16 9 4.8 14.5 0.00 0.00 0.00 75 1014.8
20260507040000 16 90 6.4 16.1 0.00 0.00 0.00 75 1014.1
20260507034609 16 32 4.8 17.7 0.00 0.00 0.00 75 1013.9
20260507033058 16 5 4.8 16.1 0.00 0.00 0.00 75 1013.9
20260507031600 16 334 6.4 17.7 0.00 0.00 0.00 75 1013.8
20260507030101 16 360 3.2 14.5 0.00 0.00 0.00 75 1014.0
20260507024556 16 318 4.8 14.5 0.00 0.00 0.00 75 1014.0
20260507023054 16 321 1.6 14.5 0.00 0.00 0.00 75 1013.8
20260507021611 16 280 3.2 14.5 0.00 0.00 0.00 75 1013.7
20260507020107 16 349 3.2 17.7 0.00 0.00 0.00 75 1013.0
20260507014615 16 333 1.6 11.3 0.00 0.00 0.00 74 1013.1
20260507013049 17 336 3.2 12.9 0.00 0.00 0.00 74 1013.1
20260507011553 17 324 3.2 11.3 0.00 0.00 0.00 74 1012.7
20260507010044 17 333 1.6 12.9 0.00 0.00 0.00 73 1012.4
20260507004537 17 350 3.2 16.1 0.00 0.00 0.00 73 1012.2
20260507003035 18 338 6.4 17.7 0.00 0.00 0.00 73 1012.5
20260507001552 18 321 1.6 16.1 0.00 0.00 0.00 72 1012.1
20260507000035 18 39 1.6 14.5 0.00 0.00 0.00 72 1011.9
20260506234527 18 325 4.8 19.3 0.00 0.00 0.00 72 1011.8
20260506233024 20 5 4.8 19.3 0.00 0.00 0.00 70 1011.4
20260506231521 20 17 3.2 17.7 0.00 0.00 0.00 71 1011.5
20260506230019 21 295 4.8 17.7 0.00 0.00 0.00 68 1011.3
20260506224514 22 360 6.4 14.5 0.00 0.00 0.00 67 1011.2
20260506223010 22 284 3.2 19.3 0.00 0.00 0.00 67 1011.0
20260506221510 23 15 3.2 14.5 0.00 0.00 0.00 67 1010.7
20260506220010 23 49 4.8 16.1 0.00 0.00 0.00 67 1010.6
20260506214509 23 348 3.2 14.5 0.00 0.00 0.00 68 1010.7